Regional Weather Roundup
Issued by NWS

Home | Current Version | Previous Version | Graphics & Text | Print | Product List | Glossary On
Versions: 1 2 3 4 5 6 7 8 9 10 11 12 13 14 15 16 17 18 19 20 21 22 23 24 25 26 27 28 29 30 31 32 33 34 35 36 37 38 39 40 41 42 43 44 45 46 47 48 49 50
000
ASUS43 KMKX 241900
RWRWI

WISCONSIN REGIONAL WEATHER ROUNDUP
NATIONAL WEATHER SERVICE MILWAUKEE/SULLIVAN WI
200 PM CDT MON APR 24 2017

NOTE: "FAIR" INDICATES FEW OR NO CLOUDS BELOW 12,000 FEET WITH NO
SIGNIFICANT WEATHER AND/OR OBSTRUCTIONS TO VISIBILITY.

WIZ001-002-006>008-014>016-023>028-242000-
NORTHWEST WISCONSIN

CITY           SKY/WX    TMP DP  RH WIND       PRES   REMARKS
SUPERIOR ARPT  CLOUDY    38  32  78 E23G29    29.80F WCI  27
ASHLAND        CLOUDY    45  31  58 NE13      29.82F
HAYWARD        CLOUDY    65  30  27 S21G28    29.75F
SIREN          CLOUDY    65  34  31 S18G29    29.71F
CUMBERLAND     PTSUNNY   63  37  39 S13       29.74F
RICE LAKE      PTSUNNY   65  32  28 SE18G25   29.76F
CHETEK         PTSUNNY   63  37  37 S16G23    29.76F
LADYSMITH      CLOUDY    62  34  35 SE14G21   29.81F
EAU CLAIRE     NOT AVBL
MENOMONIE      CLOUDY    66  35  30 SE16      29.75F
NEW RICHMOND   CLOUDY    69  28  21 S15G30    29.71F
OSCEOLA        CLOUDY    69  31  24 S26G33    29.73F
$$

WIZ003>005-009-010-017-018-242000-
NORTH CENTRAL WISCONSIN

CITY           SKY/WX    TMP DP  RH WIND       PRES   REMARKS
MANITOWISH WTR CLOUDY    59  33  36 S13G20    29.83F
ARBOR VITAE    MOSUNNY   63  30  29 S15G25    29.84F
WOODRUFF       MOSUNNY   63  30  29 S15G25    29.84F
RHINELANDER    MOSUNNY   64  30  27 S14G23    29.85F
EAGLE RIVER    MOSUNNY   63  28  26 S9G23     29.86F
LAND O LAKES   MOSUNNY   62  30  29 S12       29.88F
PHILLIPS       CLOUDY    62  34  35 S12G18    29.80F
TOMAHAWK       PTSUNNY   62  32  32 S7        29.85F
MEDFORD        CLOUDY    60  37  42 S15G23    29.84F
MERRILL        PTSUNNY   65  33  30 S14G20    29.86F
$$

WIZ029-030-035-036-043>047-242000-
CENTRAL WISCONSIN

CITY           SKY/WX    TMP DP  RH WIND       PRES   REMARKS
WAUSAU         CLOUDY    64  34  32 S18       29.84F
MOSINEE        PTSUNNY   63  32  31 S16G24    29.87F
MARSHFIELD     PTSUNNY   65  32  29 S20G28    29.82F
STEVENS POINT  CLOUDY    64  32  30 S10G16    29.88F
WAUPACA        MOSUNNY   66  37  34 SE8       29.90F
WAUTOMA        PTSUNNY   68  34  28 S16       29.88
WISC RAPIDS    CLOUDY    68  30  24 S12G24    29.85F
CAMP DOUGLAS   NOT AVBL
$$

WIZ011>013-019>022-031-037>040-048>050-242000-
NORTHEAST WISCONSIN

CITY           SKY/WX    TMP DP  RH WIND       PRES   REMARKS
ANTIGO         MOSUNNY   59  36  41 S16       29.90F
SHAWANO        CLOUDY    64  40  41 SE6       29.91F
OCONTO         CLOUDY    53  39  60 E7        29.95F
STURGEON BAY   CLOUDY    51  40  65 SE9       29.96F
GREEN BAY      CLOUDY    57  46  66 NE9       29.93F
MANITOWOC      NOT AVBL
APPLETON       PTSUNNY   64  34  32 S9        29.89F
CLINTONVILLE   CLOUDY    61  36  39 SE7       29.91F
OSHKOSH        CLOUDY    64  42  44 E7        29.89F
$$

WIZ032>034-041-042-053>061-242000-
SOUTHWEST WISCONSIN

CITY           SKY/WX    TMP DP  RH WIND       PRES   REMARKS
LA CROSSE      MOSUNNY   72  30  21 S23G30    29.78F
SPARTA         MOSUNNY   70  31  23 S20G26    29.83F
VIROQUA        MOSUNNY   68  30  24 S16       29.83F
BOSCOBEL       SUNNY     73  30  20 S14G22    29.83F
PRAIRIE DU CHI MOSUNNY   71  26  18 S8G17     29.82F
PLATTEVILLE    MOSUNNY   70  32  25 SE18G30   29.86F
$$

WIZ056-057-062-063-064-067-068-242000-
SOUTH CENTRAL WISCONSIN

CITY           SKY/WX    TMP DP  RH WIND       PRES   REMARKS
REEDSBURG      MOSUNNY   70  34  26 S15       29.86F
BARABOO/DELLS  MOSUNNY   69  33  26 SE16      29.87F
LONE ROCK      NOT AVBL
MINERAL POINT  SUNNY     70  28  21 S16G25    29.87F
MADISON        PTSUNNY   69  32  25 S14       29.87F
MIDDLETON      MOSUNNY   71  27  19 S18G28    29.89F
WATERTOWN      CLOUDY    69  33  26 S14G20    29.89F
MONROE         MOSUNNY   68  32  26 SE20G25   29.88F
JANESVILLE     PTSUNNY   73  27  17 S17G23    29.88F
$$

WIZ051-052-058>065-066-070>072-242000-
SOUTHEAST WISCONSIN

CITY           SKY/WX    TMP DP  RH WIND       PRES   REMARKS
MILWAUKEE      PTSUNNY   65  38  36 SE10      29.93F
WAUKESHA       SUNNY     66  34  30 SE12G23   29.92F
MILWAUKEE/TIMM SUNNY     66  34  30 SE14      29.93F
RACINE         MOSUNNY   64  30  27 S12       29.95F
KENOSHA        SUNNY     67  30  25 SE16G23   29.93F
FOND DU LAC    CLOUDY    68  35  29 S14       29.89F
SHEBOYGAN      MOSUNNY   60  41  49 SE9       29.93F
WEST BEND      MOSUNNY   64  36  34 SE12      29.92F
JUNEAU         CLOUDY    67  32  26 S15G22    29.91F
$$

LSZ147-162-242000-
LAKE SUPERIOR

STATION/POSITION TIME  TEMP    WIND        PRES    WAVE
                       AIR SEA DIR/SP/G            HT/PER
                 (UTC) (F)     (DEG/KT/KT) (MB)    (FT/S)
DEVILS ISLAND    1800   36      60/ 23/ 26 1012.6F
PORT WING        1755   39      30/ 23/ 26 1010.2F
SAXON HARBOR     1840   39      20/  7/  9 1010.2F
$$

LMZ867-665-643>646-242000-
LAKE MICHIGAN

STATION/POSITION TIME  TEMP    WIND        PRES    WAVE
                       AIR SEA DIR/SP/G            HT/PER
                 (UTC) (F)     (DEG/KT/KT) (MB)    (FT/S)
CHAMBERS ISLAND  1840   43     360/  8/  9 1014.6F
N MID LAKE BUOY  1750   38 37   80/ 12/ 14 1018.1F   2/ 4
NORTHPORT PIER   1840   40      90/ 11/ 14 1015.6F
SISTER BAY       1636   50     110/ 11/ 15   N/A
KEWAUNEE LAKESHO 1830   44     150/  6/  9 1014.6F
SHEBOYGAN LAKESH 1800   44     160/ 13/ 13 1015.0F
PORT WASHINGTON  1840   47     130/  3/  6 1015.2F
MILWAUKEE LAKESH 1830   45      70/  3/  3   N/A
S MID LAKE BUOY  1750   45 42   50/  2/  2 1015.9F   1/ 5
KENOSHA   LAKESH 1800   52     120/  4/  4 1015.2
$$

TC  - TEMPERATURE IN CELSIUS
VSB - VISIBILITY IN STATUTE MILES
WCI - WIND CHILL INDEX
HX  - HEAT INDEX





USA.gov is the U.S. government's official web portal to all federal, state and local government web resources and services.